Notices

What's New in latest Release from April 7th, 2021:

- Updated Glossary, including Speed of Maximum Gust, and Total Hourly Precipitation

- Updated national and regional climate services offices contacts and prices information

- Addition of station inventory lists for 1981-2010, 1971-2000, and 1961-1990 Normals.

If you haven't already, please take our survey and provide feedback about our website: https://eccc.sondage-survey.ca/f/LanguageSelection.aspx?s=442ca660-fcf1-47c0-95a9-59707d6fd709

Hourly Data Report for January 03, 2005

SHERBROOKE A
QUEBEC

45°26'00.000" N
71°41'00.000" W
241.40 m
7028124
71610
YSC

Download Data

Hourly Data (January 2005)
Hourly Data Report for January 3, 2005
TIME
LST
Temp Definition
°C
Dew Point Definition
°C
Rel Hum Definition
%
Precip. Amount Definition
mm

Wind Dir Definition
10's deg

Wind Spd Definition
km/h
Visibility Definition
km
Stn Press Definition
kPa
Hmdx Definition


Wind Chill Definition


Weather Definition


00:00 0.6 -0.6 92   20 7 6.4 99.18      
01:00 0.6 -0.4 93     0 3.5 99.13      
02:00 0.7 -0.2 94   22 4 2.6 99.13      
03:00 1.1 0.2 94     0 2.7 99.13      
04:00 1.0 0.2 94   24 6 2.7 99.14      
05:00 1.3 0.5 94   24 13 5.6 99.20      
06:00 1.6 0.8 94   27 15 15.0 99.25      
07:00 0.6 -0.9 90   27 24 15.0 99.33      
08:00 -0.1 -2.3 85   25 13 15.0 99.34   -4  
09:00 -0.1 -2.2 86   24 9 19.3 99.42   -3 Cloudy
10:00 0.0 -2.5 83   25 11 19.3 99.45   -4 Cloudy
11:00 -0.2 -3.0 81   27 19 19.3 99.49   -5 Cloudy
12:00 -0.3 -3.2 81   27 19 19.3 99.45   -5 Cloudy
13:00 -0.2 -3.6 78   26 17 19.3 99.44   -5 Cloudy
14:00 -0.2 -3.5 78   26 11 19.3 99.38   -4 Cloudy
15:00 -0.3 -3.5 79   26 11 19.3 99.40   -4 Cloudy
16:00 -0.3 -3.9 77   25 9 19.3 99.44   -3 Cloudy
17:00 -0.5 -3.7 79   25 11 19.3 99.50   -4 Cloudy
18:00 -0.6 -4.1 77   27 9 15.0 99.50   -4  
19:00 -0.9 -4.3 78   26 7 15.0 99.52   -3  
20:00 -1.2 -4.6 78   26 6 15.0 99.47   -3  
21:00 -1.2 -4.3 79   24 4 15.0 99.46   -3  
22:00 -1.4 -3.9 83   23 4 15.0 99.40   -3  
23:00 -1.5 -4.2 82     0 15.0 99.40      

Notes on Data Quality.

Legend

  • E = Estimated
  • M = Missing
  • NA = Not Available*
  • [empty] = Indicates an unobserved value
Date modified: